Location: Br�ttisellen
(47.4227°N, 8.6287°E)
Time: 07:07:09
(UTC+00:00)

Cosmos 2341 Rocket - Visible Passes

Search period start: 11 August 2020 00:00
Search period end: 21 August 2020 00:00
Orbit: 969 x 1004 km, 82.9° (Epoch: 10 August)

Date Brightness Start Highest point End Pass type
(mag) Time Alt. Az. Time Alt. Az. Time Alt. Az.
11 Aug 6.3 19:44:28 10° SW 19:49:43 28° WNW 19:55:01 10° N visible
12 Aug 7.7 03:08:58 10° NE 03:10:17 11° NE 03:11:37 10° ENE visible
12 Aug 7.0 20:15:18 10° W 20:18:59 16° WNW 20:22:44 10° NNW visible
13 Aug 7.1 03:35:21 10° NNE 03:39:46 19° ENE 03:44:10 10° ESE visible
14 Aug 6.4 19:24:57 10° SW 19:30:10 27° WNW 19:35:28 10° N visible
15 Aug 7.6 02:49:13 10° NE 02:50:47 11° NE 02:52:21 10° ENE visible
15 Aug 7.1 19:55:50 10° W 19:59:28 16° WNW 20:03:10 10° NNW visible
16 Aug 7.0 03:15:46 10° NNE 03:20:15 19° ENE 03:24:43 10° ESE visible
17 Aug 6.1 03:43:45 10° N 03:49:28 33° ENE 03:55:10 10° SE visible
17 Aug 6.6 19:05:27 10° WSW 19:10:39 27° WNW 19:15:55 10° N visible
18 Aug 7.4 02:29:31 10° NE 02:31:17 11° NE 02:33:03 10° ENE visible
18 Aug 7.2 19:36:21 10° W 19:39:57 16° WNW 19:43:35 10° NNW visible
19 Aug 6.9 02:56:12 10° NNE 03:00:45 20° ENE 03:05:16 10° ESE visible
20 Aug 6.0 03:24:11 10° N 03:29:56 34° ENE 03:35:40 10° SE visible
